Location: Kosice
(48.7170°N, 21.2500°E)
Time: 08:56:39
(UTC+02:00)

ISS - Pass Details

Date: 29 March 2019
Orbit: 408 x 410 km, 51.6° (Epoch: 22 April)

Event Time Altitude Azimuth Distance (km) Brightness Sun altitude
Rises 20:06:02 0° 284° (WNW) 2,338 1.4 -20.3°
Reaches altitude 10° 20:08:09 10° 290° (WNW) 1,476 0.1 -20.6°
Enters shadow 20:11:21 53° 3° (N) 512 -3.3 -21.0°
